ONEWEB-0138 (47284 NORAD) Tracking and Keplerian Element Data

This shows tracking and keplerian element data for the satellite.

Feedback or suggestion? Click here.




ElementValue
Catalog47284
NameONEWEB-0138
Epoch Orbit172
Epoch Day101.91668981
Epoch Year2021
RAAN6.9081
Inclination87.973
Eccentricity0.0003348
Argument of Perigee267.0697
Mean Anonmoly237.1714
Mean Motion13.28443601
Decay Rate-0.00035906
L11 47284U 20100AC 21101.91668981 -.00035906 00000-0 -79095-1 0 9997
L22 47284 87.9730 6.9081 0003348 267.0697 237.1714 13.28443601 1727

Live tracking and technical data element details for ONEWEB-0138 (NORAD 47284). ONEWEB-0138 can be tracked NOW for your location showing map with azimuth and elevation plus other details from your city location.

Track the satellite on the map from your city or location and see movement details for azimuth, elevation, latitude, longitude, range, height, and movement on the map or in text.







IsCatalogInMostPopularTable: catalog: 47284, numindb: 35
Update: records affected: 1



GetName: 47284 ONEWEB-0138

Hit Count: updated at: Tue, 13 Apr 2021 04:47:29 GMT